Time,TemperatureF,DewpointF,PressureIn,WindDirection,WindDirectionDegrees,WindSpeedMPH,WindSpeedGustMPH,Humidity,HourlyPrecipIn,Conditions,Clouds,dailyrainin,SoftwareType,DateUTC
2013-02-22 00:01:00,12.0,12.0,29.89,NW,320,9.0,-999.0,100,0.00,,,-99.99,,2013-02-22 06:01:00,
2013-02-22 00:11:00,12.0,12.0,29.89,NW,320,9.0,-999.0,100,0.00,,,-99.99,,2013-02-22 06:11:00,
2013-02-22 00:21:00,12.0,12.0,29.89,NW,320,8.0,-999.0,100,0.00,,,-99.99,,2013-02-22 06:21:00,
2013-02-22 00:31:00,12.0,10.0,29.89,NW,320,9.0,-999.0,92,0.00,,,-99.99,,2013-02-22 06:31:00,
2013-02-22 00:41:00,10.0,10.0,29.89,NW,320,8.0,-999.0,100,0.00,,,-99.99,,2013-02-22 06:41:00,
2013-02-22 00:51:00,9.0,9.0,29.90,NW,310,7.0,-999.0,100,0.00,,,-99.99,,2013-02-22 06:51:00,
2013-02-22 01:01:00,9.0,9.0,29.90,NW,310,7.0,-999.0,100,0.00,,,-99.99,,2013-02-22 07:01:00,
2013-02-22 01:11:00,9.0,7.0,29.91,West,280,7.0,-999.0,92,0.00,,,-99.99,,2013-02-22 07:11:00,
2013-02-22 01:21:00,9.0,7.0,29.91,West,270,7.0,-999.0,92,0.00,,,-99.99,,2013-02-22 07:21:00,
2013-02-22 01:31:00,3.0,1.0,29.91,West,260,7.0,-999.0,91,0.00,,,-99.99,,2013-02-22 07:31:00,
2013-02-22 01:42:00,3.0,3.0,29.91,WSW,250,10.0,-999.0,100,0.00,,,-99.99,,2013-02-22 07:42:00,
2013-02-22 01:51:00,3.0,1.0,29.91,West,270,10.0,-999.0,91,0.00,,,-99.99,,2013-02-22 07:51:00,
2013-02-22 02:01:00,3.0,1.0,29.91,West,270,10.0,-999.0,91,0.00,,,-99.99,,2013-02-22 08:01:00,
2013-02-22 02:11:00,3.0,3.0,29.92,West,260,9.0,-999.0,100,0.00,,,-99.99,,2013-02-22 08:11:00,
2013-02-22 02:21:00,3.0,3.0,29.92,West,280,9.0,-999.0,100,0.00,,,-99.99,,2013-02-22 08:21:00,
2013-02-22 02:31:00,5.0,3.0,29.92,West,280,9.0,-999.0,92,0.00,,,-99.99,,2013-02-22 08:31:00,
2013-02-22 02:41:00,5.0,3.0,29.92,WNW,290,10.0,-999.0,92,0.00,,,-99.99,,2013-02-22 08:41:00,
2013-02-22 02:51:00,7.0,5.0,29.91,West,280,10.0,-999.0,92,0.00,,,-99.99,,2013-02-22 08:51:00,
2013-02-22 03:02:00,7.0,5.0,29.91,West,280,10.0,-999.0,92,0.00,,,-99.99,,2013-02-22 09:02:00,
2013-02-22 03:11:00,7.0,7.0,29.91,WNW,290,9.0,-999.0,100,0.00,,,-99.99,,2013-02-22 09:11:00,
2013-02-22 03:21:00,10.0,10.0,29.92,WNW,300,10.0,-999.0,100,0.00,,,-99.99,,2013-02-22 09:21:00,
2013-02-22 03:31:00,10.0,10.0,29.92,WNW,290,8.0,-999.0,100,0.00,,,-99.99,,2013-02-22 09:31:00,
2013-02-22 03:41:00,10.0,10.0,29.92,West,280,6.0,-999.0,100,0.00,,,-99.99,,2013-02-22 09:41:00,
2013-02-22 03:51:00,10.0,10.0,29.91,WNW,290,5.0,-999.0,100,0.00,,,-99.99,,2013-02-22 09:51:00,
2013-02-22 04:01:00,10.0,10.0,29.91,WNW,290,5.0,-999.0,100,0.00,,,-99.99,,2013-02-22 10:01:00,
2013-02-22 04:11:00,10.0,10.0,29.91,WNW,290,3.0,-999.0,100,0.00,,,-99.99,,2013-02-22 10:11:00,
2013-02-22 04:21:00,9.0,9.0,29.91,West,280,5.0,-999.0,100,0.00,,,-99.99,,2013-02-22 10:21:00,
2013-02-22 04:31:00,9.0,7.0,29.91,WNW,300,5.0,-999.0,92,0.00,,,-99.99,,2013-02-22 10:31:00,
2013-02-22 04:42:00,7.0,7.0,29.91,NW,310,6.0,-999.0,100,0.00,,,-99.99,,2013-02-22 10:42:00,
2013-02-22 04:51:00,7.0,5.0,29.91,WSW,250,5.0,-999.0,92,0.00,,,-99.99,,2013-02-22 10:51:00,
2013-02-22 05:01:00,7.0,5.0,29.91,WSW,250,5.0,-999.0,92,0.00,,,-99.99,,2013-02-22 11:01:00,
2013-02-22 05:11:00,7.0,5.0,29.92,West,260,6.0,-999.0,92,0.00,,,-99.99,,2013-02-22 11:11:00,
2013-02-22 05:21:00,3.0,1.0,29.91,West,260,7.0,-999.0,91,0.00,,,-99.99,,2013-02-22 11:21:00,
2013-02-22 05:31:00,3.0,1.0,29.92,West,260,9.0,-999.0,91,0.00,,,-99.99,,2013-02-22 11:31:00,
2013-02-22 05:42:00,1.0,1.0,29.91,West,280,8.0,-999.0,100,0.00,,,-99.99,,2013-02-22 11:42:00,
2013-02-22 05:51:00,3.0,1.0,29.92,West,270,7.0,-999.0,91,0.00,,,-99.99,,2013-02-22 11:51:00,
2013-02-22 06:01:00,3.0,1.0,29.92,West,270,7.0,-999.0,91,0.00,,,-99.99,,2013-02-22 12:01:00,
2013-02-22 06:11:00,1.0,0.0,29.93,West,260,10.0,-999.0,91,0.00,,,0.00,,2013-02-22 12:11:00,
2013-02-22 06:21:00,1.0,0.0,29.93,West,260,12.0,-999.0,91,0.00,,,0.00,,2013-02-22 12:21:00,
2013-02-22 06:32:00,1.0,0.0,29.93,West,270,10.0,-999.0,91,0.00,,,0.00,,2013-02-22 12:32:00,
2013-02-22 06:42:00,1.0,0.0,29.93,West,270,12.0,-999.0,91,0.00,,,0.00,,2013-02-22 12:42:00,
2013-02-22 06:51:00,1.0,0.0,29.93,West,270,12.0,-999.0,91,0.00,,,0.00,,2013-02-22 12:51:00,
2013-02-22 07:01:00,1.0,0.0,29.93,West,270,12.0,-999.0,91,0.00,,,0.00,,2013-02-22 13:01:00,
2013-02-22 07:11:00,3.0,1.0,29.93,West,280,12.0,-999.0,91,0.00,,,-99.99,,2013-02-22 13:11:00,
2013-02-22 07:22:00,3.0,3.0,29.92,West,280,12.0,-999.0,100,0.00,,,-99.99,,2013-02-22 13:22:00,
2013-02-22 07:31:00,3.0,1.0,29.92,West,280,12.0,-999.0,91,0.00,,,-99.99,,2013-02-22 13:31:00,
2013-02-22 07:41:00,3.0,1.0,29.92,West,280,9.0,-999.0,91,0.00,,,-99.99,,2013-02-22 13:41:00,
2013-02-22 07:51:00,3.0,1.0,29.93,West,270,9.0,-999.0,91,0.00,,,-99.99,,2013-02-22 13:51:00,
2013-02-22 08:01:00,3.0,1.0,29.93,West,270,9.0,-999.0,91,0.00,,,-99.99,,2013-02-22 14:01:00,
2013-02-22 08:11:00,3.0,1.0,29.93,West,270,8.0,-999.0,91,0.00,,,-99.99,,2013-02-22 14:11:00,
2013-02-22 08:21:00,3.0,3.0,29.95,West,270,6.0,-999.0,100,0.00,,,-99.99,,2013-02-22 14:21:00,
2013-02-22 08:31:00,3.0,3.0,29.95,West,270,8.0,-999.0,100,0.00,,,-99.99,,2013-02-22 14:31:00,
2013-02-22 08:41:00,3.0,3.0,29.95,West,260,9.0,-999.0,100,0.00,,,-99.99,,2013-02-22 14:41:00,
2013-02-22 08:52:00,5.0,3.0,29.96,SW,230,8.0,-999.0,92,0.00,,,-99.99,,2013-02-22 14:52:00,
2013-02-22 09:01:00,5.0,3.0,29.96,SW,230,8.0,-999.0,92,0.00,,,-99.99,,2013-02-22 15:01:00,
2013-02-22 09:11:00,7.0,5.0,29.97,SW,230,6.0,-999.0,92,0.00,,,-99.99,,2013-02-22 15:11:00,
2013-02-22 09:21:00,7.0,7.0,29.97,WSW,250,7.0,-999.0,100,0.00,,,-99.99,,2013-02-22 15:21:00,
2013-02-22 09:31:00,9.0,7.0,29.97,West,270,6.0,-999.0,92,0.00,,,-99.99,,2013-02-22 15:31:00,
2013-02-22 09:41:00,9.0,9.0,29.97,West,270,9.0,-999.0,100,0.00,,,-99.99,,2013-02-22 15:41:00,
2013-02-22 09:51:00,10.0,10.0,29.97,West,270,9.0,-999.0,100,0.00,,,-99.99,,2013-02-22 15:51:00,
2013-02-22 10:01:00,10.0,10.0,29.97,West,270,9.0,-999.0,100,0.00,,,-99.99,,2013-02-22 16:01:00,
2013-02-22 10:11:00,12.0,12.0,29.97,WNW,290,8.0,-999.0,100,0.00,,,-99.99,,2013-02-22 16:11:00,
2013-02-22 10:21:00,14.0,12.0,29.97,West,280,10.0,-999.0,92,0.00,,,-99.99,,2013-02-22 16:21:00,
2013-02-22 10:31:00,16.0,14.0,29.97,West,280,9.0,-999.0,92,0.00,,,-99.99,,2013-02-22 16:31:00,
2013-02-22 10:41:00,16.0,16.0,29.97,West,280,9.0,-999.0,100,0.00,,,-99.99,,2013-02-22 16:41:00,
2013-02-22 10:52:00,18.0,16.0,29.97,West,280,8.0,-999.0,92,0.00,,,-99.99,,2013-02-22 16:52:00,
2013-02-22 11:01:00,18.0,16.0,29.97,West,280,8.0,-999.0,92,0.00,,,-99.99,,2013-02-22 17:01:00,
2013-02-22 11:11:00,19.0,16.0,29.98,West,260,7.0,-999.0,85,0.00,,,-99.99,,2013-02-22 17:11:00,
2013-02-22 11:21:00,19.0,18.0,29.98,West,270,7.0,-999.0,92,0.00,,,-99.99,,2013-02-22 17:21:00,
2013-02-22 11:31:00,19.0,18.0,29.98,West,270,6.0,-999.0,92,0.00,,,-99.99,,2013-02-22 17:31:00,
2013-02-22 11:41:00,19.0,18.0,29.99,West,280,13.0,-999.0,92,0.00,,,-99.99,,2013-02-22 17:41:00,
2013-02-22 11:51:00,21.0,19.0,29.99,WNW,290,13.0,-999.0,92,0.00,,,-99.99,,2013-02-22 17:51:00,
2013-02-22 12:01:00,21.0,19.0,29.99,WNW,290,13.0,-999.0,92,0.00,,,-99.99,,2013-02-22 18:01:00,
2013-02-22 12:11:00,21.0,19.0,29.99,WNW,290,13.0,-999.0,92,0.00,,,-99.99,,2013-02-22 18:11:00,
2013-02-22 12:21:00,23.0,19.0,29.99,WNW,300,12.0,-999.0,85,0.00,,,-99.99,,2013-02-22 18:21:00,
2013-02-22 12:31:00,25.0,21.0,29.99,WNW,290,10.0,-999.0,85,0.00,,,-99.99,,2013-02-22 18:31:00,
2013-02-22 12:41:00,25.0,21.0,29.99,WNW,290,12.0,-999.0,85,0.00,,,-99.99,,2013-02-22 18:41:00,
2013-02-22 12:51:00,25.0,21.0,29.98,WNW,290,9.0,-999.0,85,0.00,,,-99.99,,2013-02-22 18:51:00,
2013-02-22 13:01:00,25.0,21.0,29.98,WNW,290,9.0,-999.0,85,0.00,,,-99.99,,2013-02-22 19:01:00,
2013-02-22 13:11:00,27.0,21.0,29.98,WNW,290,9.0,-999.0,79,0.00,,,-99.99,,2013-02-22 19:11:00,
2013-02-22 13:21:00,27.0,23.0,29.98,West,270,9.0,-999.0,86,-99.99,,,-99.99,,2013-02-22 19:21:00,
2013-02-22 13:31:00,27.0,23.0,29.98,West,280,9.0,-999.0,86,-99.99,,,-99.99,,2013-02-22 19:31:00,
2013-02-22 13:41:00,27.0,23.0,29.97,WNW,290,8.0,-999.0,86,0.00,,,-99.99,,2013-02-22 19:41:00,
2013-02-22 13:51:00,27.0,23.0,29.97,West,270,8.0,-999.0,86,0.00,,,-99.99,,2013-02-22 19:51:00,
2013-02-22 14:01:00,27.0,23.0,29.97,West,270,8.0,-999.0,86,0.00,,,-99.99,,2013-02-22 20:01:00,
2013-02-22 14:11:00,28.0,23.0,29.96,West,280,8.0,-999.0,79,0.00,,,-99.99,,2013-02-22 20:11:00,
2013-02-22 14:21:00,28.0,25.0,29.96,West,280,8.0,-999.0,86,0.00,,,-99.99,,2013-02-22 20:21:00,
2013-02-22 14:31:00,28.0,25.0,29.96,West,280,8.0,-999.0,86,0.00,,,-99.99,,2013-02-22 20:31:00,
2013-02-22 14:41:00,28.0,25.0,29.96,West,280,9.0,-999.0,86,0.00,,,-99.99,,2013-02-22 20:41:00,
2013-02-22 14:51:00,28.0,25.0,29.96,WNW,300,7.0,-999.0,86,0.00,,,-99.99,,2013-02-22 20:51:00,
2013-02-22 15:01:00,28.0,25.0,29.96,WNW,300,7.0,-999.0,86,0.00,,,-99.99,,2013-02-22 21:01:00,
2013-02-22 15:11:00,30.0,25.0,29.95,WNW,300,8.0,-999.0,80,0.00,,,-99.99,,2013-02-22 21:11:00,
2013-02-22 15:21:00,30.0,25.0,29.96,NW,320,6.0,-999.0,80,0.00,,,-99.99,,2013-02-22 21:21:00,
2013-02-22 15:31:00,30.0,25.0,29.96,NW,320,6.0,-999.0,80,0.00,,,-99.99,,2013-02-22 21:31:00,
2013-02-22 15:41:00,30.0,25.0,29.96,NNW,330,6.0,-999.0,80,0.00,,,-99.99,,2013-02-22 21:41:00,
2013-02-22 15:51:00,30.0,25.0,29.96,NW,320,5.0,-999.0,80,0.00,,,-99.99,,2013-02-22 21:51:00,
2013-02-22 16:01:00,30.0,25.0,29.96,NW,320,5.0,-999.0,80,0.00,,,-99.99,,2013-02-22 22:01:00,
2013-02-22 16:11:00,30.0,27.0,29.96,NW,310,6.0,-999.0,86,0.00,,,-99.99,,2013-02-22 22:11:00,
2013-02-22 16:21:00,30.0,27.0,29.96,NW,310,5.0,-999.0,86,0.00,,,-99.99,,2013-02-22 22:21:00,
2013-02-22 16:31:00,30.0,25.0,29.95,NW,310,5.0,-999.0,80,0.00,,,-99.99,,2013-02-22 22:31:00,
2013-02-22 16:41:00,30.0,25.0,29.95,NW,310,5.0,-999.0,80,0.00,,,-99.99,,2013-02-22 22:41:00,
2013-02-22 16:51:00,30.0,25.0,29.95,NNW,330,6.0,-999.0,80,0.00,,,-99.99,,2013-02-22 22:51:00,
2013-02-22 17:01:00,30.0,25.0,29.95,NNW,330,6.0,-999.0,80,0.00,,,-99.99,,2013-02-22 23:01:00,
2013-02-22 17:11:00,28.0,25.0,29.95,NW,320,5.0,-999.0,86,0.00,,,-99.99,,2013-02-22 23:11:00,
2013-02-22 17:21:00,28.0,25.0,29.95,NW,320,5.0,-999.0,86,0.00,,,-99.99,,2013-02-22 23:21:00,
2013-02-22 17:31:00,28.0,25.0,29.95,NW,320,3.0,-999.0,86,0.00,,,-99.99,,2013-02-22 23:31:00,
2013-02-22 17:41:00,28.0,25.0,29.96,NW,310,3.0,-999.0,86,0.00,,,-99.99,,2013-02-22 23:41:00,
2013-02-22 17:51:00,27.0,25.0,29.95,North,0,0.0,-999.0,92,0.00,,,-99.99,,2013-02-22 23:51:00,
2013-02-22 18:01:00,27.0,25.0,29.95,North,0,0.0,-999.0,92,0.00,,,-99.99,,2013-02-23 00:01:00,
2013-02-22 18:11:00,27.0,25.0,29.95,North,0,0.0,-999.0,92,0.00,,,-99.99,,2013-02-23 00:11:00,
2013-02-22 18:21:00,27.0,23.0,29.95,NW,310,3.0,-999.0,86,0.00,,,-99.99,,2013-02-23 00:21:00,
2013-02-22 18:31:00,27.0,23.0,29.95,NW,310,5.0,-999.0,86,0.00,,,-99.99,,2013-02-23 00:31:00,
2013-02-22 18:41:00,25.0,23.0,29.96,NW,310,5.0,-999.0,92,0.00,,,-99.99,,2013-02-23 00:41:00,
2013-02-22 18:51:00,23.0,21.0,29.96,WNW,290,6.0,-999.0,92,0.00,,,-99.99,,2013-02-23 00:51:00,
2013-02-22 19:01:00,23.0,21.0,29.96,WNW,290,6.0,-999.0,92,0.00,,,-99.99,,2013-02-23 01:01:00,
2013-02-22 19:11:00,16.0,16.0,29.96,West,280,5.0,-999.0,100,0.00,,,-99.99,,2013-02-23 01:11:00,
2013-02-22 19:21:00,18.0,18.0,29.97,West,260,3.0,-999.0,100,0.00,,,-99.99,,2013-02-23 01:21:00,
2013-02-22 19:31:00,21.0,21.0,29.97,WSW,240,5.0,-999.0,100,0.00,,,-99.99,,2013-02-23 01:31:00,
2013-02-22 19:41:00,21.0,21.0,29.97,WSW,240,3.0,-999.0,100,0.00,,,-99.99,,2013-02-23 01:41:00,
2013-02-22 19:51:00,18.0,18.0,29.97,SSW,210,3.0,-999.0,100,0.00,,,-99.99,,2013-02-23 01:51:00,
2013-02-22 20:01:00,18.0,18.0,29.97,SSW,210,3.0,-999.0,100,0.00,,,-99.99,,2013-02-23 02:01:00,
2013-02-22 20:11:00,16.0,16.0,29.97,SW,220,3.0,-999.0,100,0.00,,,-99.99,,2013-02-23 02:11:00,
2013-02-22 20:21:00,14.0,14.0,29.97,WSW,240,6.0,-999.0,100,0.00,,,-99.99,,2013-02-23 02:21:00,
2013-02-22 20:31:00,12.0,12.0,29.96,WSW,240,5.0,-999.0,100,0.00,,,-99.99,,2013-02-23 02:31:00,
2013-02-22 20:41:00,12.0,12.0,29.96,WSW,240,5.0,-999.0,100,0.00,,,-99.99,,2013-02-23 02:41:00,
2013-02-22 20:51:00,12.0,12.0,29.97,SSW,210,5.0,-999.0,100,0.00,,,-99.99,,2013-02-23 02:51:00,
2013-02-22 21:01:00,12.0,12.0,29.97,SSW,210,5.0,-999.0,100,0.00,,,-99.99,,2013-02-23 03:01:00,
2013-02-22 21:11:00,12.0,12.0,29.97,SW,220,8.0,-999.0,100,0.00,,,-99.99,,2013-02-23 03:11:00,
2013-02-22 21:21:00,9.0,9.0,29.97,SSW,210,7.0,-999.0,100,0.00,,,-99.99,,2013-02-23 03:21:00,
2013-02-22 21:31:00,10.0,9.0,29.97,SSW,210,5.0,-999.0,92,0.00,,,-99.99,,2013-02-23 03:31:00,
2013-02-22 21:41:00,9.0,9.0,29.97,SW,230,6.0,-999.0,100,0.00,,,-99.99,,2013-02-23 03:41:00,
2013-02-22 21:51:00,9.0,9.0,29.97,SW,230,6.0,-999.0,100,0.00,,,-99.99,,2013-02-23 03:51:00,
2013-02-22 22:01:00,9.0,9.0,29.97,SW,230,6.0,-999.0,100,0.00,,,-99.99,,2013-02-23 04:01:00,
2013-02-22 22:11:00,9.0,9.0,29.97,WSW,250,5.0,-999.0,100,0.00,,,-99.99,,2013-02-23 04:11:00,
2013-02-22 22:21:00,9.0,9.0,29.97,WSW,250,7.0,-999.0,100,0.00,,,-99.99,,2013-02-23 04:21:00,
2013-02-22 22:31:00,9.0,7.0,29.97,West,260,8.0,-999.0,92,0.00,,,-99.99,,2013-02-23 04:31:00,
2013-02-22 22:41:00,9.0,9.0,29.97,WSW,250,8.0,-999.0,100,0.00,,,-99.99,,2013-02-23 04:41:00,
2013-02-22 22:51:00,9.0,9.0,29.97,West,260,8.0,-999.0,100,0.00,,,-99.99,,2013-02-23 04:51:00,
2013-02-22 23:01:00,9.0,9.0,29.97,West,260,8.0,-999.0,100,0.00,,,-99.99,,2013-02-23 05:01:00,
2013-02-22 23:11:00,9.0,7.0,29.97,West,260,9.0,-999.0,92,0.00,,,-99.99,,2013-02-23 05:11:00,
2013-02-22 23:22:00,7.0,7.0,29.96,WSW,250,8.0,-999.0,100,0.00,,,-99.99,,2013-02-23 05:22:00,
2013-02-22 23:32:00,9.0,9.0,29.96,WSW,250,9.0,-999.0,100,0.00,,,-99.99,,2013-02-23 05:32:00,
2013-02-22 23:41:00,9.0,9.0,29.96,WSW,250,8.0,-999.0,100,0.00,,,-99.99,,2013-02-23 05:41:00,
2013-02-22 23:51:00,9.0,7.0,29.96,SW,230,8.0,-999.0,92,0.00,,,-99.99,,2013-02-23 05:51:00,